Tracking 25693 objects as of 1-Jul-2022
HD Live streaming from Space Station
objects crossing your sky now

DMSP 5D-2 F13 DEB

Track DMSP 5D-2 F13 DEB now!
10-day predictions


NORAD ID: 40447
Int'l Code: 1995-015AZ
Perigee: 816.5 km
Apogee: 835.6 km
Inclination: 98.7 °
Period: 101.3 minutes
Semi major axis: 7197 km
RCS: Unknown
Launch date: March 24, 1995
Source: United States (US)
Launch site: AIR FORCE WESTERN TEST RANGE (AFWTR)

Note: This is SATELLITE DEBRIS
aabbcc
Your satellite tracking list
Your tracking list is empty




NASA's NSSDC Master Catalog

Two Line Element Set (TLE):
1 40447U 95015AZ  22181.54563563  .00000675  00000-0  32556-3 0  9992
2 40447  98.7327 198.0538 0013260 207.2158 152.8326 14.21912244379891
Source of the keplerian elements: AFSPC